Date String (YYYY-MM-DD hh:mm:ss) UTC,Instrument flags,Ambient pressure (hPa),Sample flow (lpm),Bypass flow (lpm),Sample temperature (°C),Ambient temperature (°C),ASC tube jacket temperature (°C),LED temperature (°C),Box temperature (°C),Sample RH (%),Mass concentration (μg/m³),Mass concentration (μg/m³)
DateTimeUTC,F1_M11,P_M11,Q1_M11,Q2_M11,T1_M11,T2_M11,T3_M11,T4_M11,T5_M11,U1_M11,X0_M11,X2_M11
2021-08-14 21:00:00,,0832.3,5.00,0.00,28.7,26.3,00.0,37.8,30.4,31.2,0021.54,0010.86
2021-08-14 21:01:00,,0832.3,4.99,0.00,28.8,26.7,00.0,37.8,30.5,31.1,0022.08,0010.91
2021-08-14 21:02:00,,0832.4,5.00,0.00,28.8,27.1,00.0,37.8,30.6,31.5,0021.82,0010.92
2021-08-14 21:03:00,,0832.4,5.00,0.00,28.9,27.5,00.0,37.8,30.8,31.4,0021.56,0010.93
2021-08-14 21:04:00,,0832.3,4.99,0.00,28.9,27.1,00.0,37.8,30.6,30.4,0021.64,0010.99
2021-08-14 21:05:00,,0832.2,5.02,0.00,28.8,25.8,00.0,37.8,30.2,30.8,0022.01,0011.10
2021-08-14 21:06:00,,0832.3,4.99,0.00,28.7,25.5,00.0,37.8,30.1,31.7,0022.41,0011.13
2021-08-14 21:07:00,,0832.2,5.00,0.00,28.7,25.9,00.0,37.8,30.3,31.6,0022.33,0011.16
2021-08-14 21:08:00,,0832.3,5.01,0.00,28.7,26.4,00.0,37.8,30.4,31.1,0022.43,0011.16
2021-08-14 21:09:00,,0832.2,4.99,0.00,28.7,26.8,00.0,37.7,30.5,29.8,0022.60,0011.21
2021-08-14 21:10:00,,0832.2,5.01,0.00,28.8,27.2,00.0,37.8,30.6,29.9,0022.36,0011.29
2021-08-14 21:11:00,,0832.2,4.99,0.00,28.8,27.5,00.0,37.8,30.8,30.9,0022.18,0011.36
2021-08-14 21:12:00,,0832.2,5.00,0.00,28.9,27.8,00.0,37.8,30.9,30.9,0021.94,0011.44
2021-08-14 21:13:00,,0832.1,5.00,0.00,28.9,27.5,00.0,37.8,30.8,30.4,0022.07,0011.52
2021-08-14 21:14:00,,0832.1,4.99,0.00,28.8,26.1,00.0,37.8,30.3,31.5,0024.00,0011.61
2021-08-14 21:15:00,,0832.1,5.01,0.00,28.7,25.8,00.0,37.8,30.2,31.0,0024.90,0011.67
2021-08-14 21:16:00,,0832.1,5.00,0.00,28.7,26.1,00.0,37.8,30.3,30.9,0024.99,0011.67
2021-08-14 21:17:00,,0832.1,4.98,0.00,28.7,26.5,00.0,37.8,30.4,30.8,0025.50,0011.69
2021-08-14 21:18:00,,0832.1,5.01,0.00,28.7,27.0,00.0,37.8,30.6,30.7,0025.50,0011.70
2021-08-14 21:19:00,,0832.1,4.99,0.00,28.8,27.3,00.0,37.8,30.7,31.0,0025.52,0011.76
2021-08-14 21:20:00,,0832.1,5.02,0.00,28.9,27.6,00.0,37.8,30.8,30.8,0025.46,0011.77
2021-08-14 21:21:00,,0832.1,4.99,0.00,28.9,27.9,00.0,37.8,30.9,31.0,0025.75,0011.70
2021-08-14 21:22:00,,0832.1,5.02,0.00,29.0,27.7,00.0,37.8,30.8,30.9,0025.74,0011.67
2021-08-14 21:23:00,,0832.1,4.99,0.00,28.9,26.3,00.0,37.8,30.3,31.2,0025.38,0011.67
2021-08-14 21:24:00,,0832.1,4.99,0.00,28.8,25.8,00.0,37.8,30.2,32.0,0025.55,0011.67
2021-08-14 21:25:00,,0832.1,4.99,0.00,28.7,26.1,00.0,37.8,30.4,32.1,0024.62,0011.66
2021-08-14 21:26:00,,0832.0,5.00,0.00,28.7,26.5,00.0,37.8,30.4,32.2,0023.48,0011.60
2021-08-14 21:27:00,,0831.9,5.01,0.00,28.8,26.9,00.0,37.8,30.6,32.0,0022.91,0011.57
2021-08-14 21:28:00,,0831.9,4.99,0.00,28.8,27.3,00.0,37.8,30.7,32.1,0022.54,0011.55
2021-08-14 21:29:00,,0831.9,5.00,0.00,28.9,27.6,00.0,37.8,30.8,32.4,0023.61,0011.54
2021-08-14 21:30:00,,0832.0,5.00,0.00,28.9,27.4,00.0,37.8,30.7,31.9,0023.37,0011.58
2021-08-14 21:31:00,,0832.0,5.00,0.00,28.8,26.1,00.0,37.8,30.3,32.2,0023.22,0011.58
2021-08-14 21:32:00,,0831.9,4.99,0.00,28.7,25.7,00.0,37.8,30.2,32.9,0023.66,0011.56
2021-08-14 21:33:00,,0831.9,5.00,0.00,28.7,26.1,00.0,37.8,30.3,33.0,0023.65,0011.56
2021-08-14 21:34:00,,0832.0,5.00,0.00,28.7,26.5,00.0,37.8,30.4,32.6,0024.00,0011.52
2021-08-14 21:35:00,,0831.9,5.01,0.00,28.7,26.9,00.0,37.8,30.5,33.3,0023.31,0011.42
2021-08-14 21:36:00,,0831.9,4.99,0.00,28.8,27.3,00.0,37.8,30.7,32.6,0023.02,0011.36
2021-08-14 21:37:00,,0831.9,5.01,0.00,28.9,27.6,00.0,37.8,30.8,32.6,0023.30,0011.31
2021-08-14 21:38:00,,0831.9,5.00,0.00,28.9,27.4,00.0,37.8,30.7,32.6,0023.97,0011.25
2021-08-14 21:39:00,,0832.0,5.00,0.00,28.8,26.2,00.0,37.8,30.3,32.4,0024.39,0011.27
2021-08-14 21:40:00,,0831.9,5.00,0.00,28.7,25.8,00.0,37.8,30.2,33.1,0023.65,0011.27
2021-08-14 21:41:00,,0831.9,5.00,0.00,28.7,26.2,00.0,37.8,30.3,34.0,0023.99,0011.24
2021-08-14 21:42:00,,0831.9,5.01,0.00,28.7,26.5,00.0,37.8,30.4,33.3,0024.46,0011.19
2021-08-14 21:43:00,,0831.8,5.01,0.00,28.7,26.9,00.0,37.8,30.6,31.5,0024.35,0011.26
2021-08-14 21:44:00,,0831.8,4.99,0.00,28.8,27.3,00.0,37.8,30.7,31.1,0025.71,0011.34
2021-08-14 21:45:00,,0831.8,5.01,0.00,28.9,27.7,00.0,37.8,30.8,31.3,0025.38,0011.42
2021-08-14 21:46:00,,0831.8,5.02,0.00,28.9,27.5,00.0,37.8,30.8,31.0,0025.94,0011.51
2021-08-14 21:47:00,,0831.7,5.01,0.00,28.9,26.2,00.0,37.8,30.4,30.7,0025.77,0011.64
2021-08-14 21:48:00,,0831.8,4.99,0.00,28.7,25.2,00.0,37.8,30.1,30.6,0025.16,0011.75
2021-08-14 21:49:00,,0831.7,5.01,0.00,28.6,25.4,00.0,37.8,30.1,30.2,0024.95,0011.86
2021-08-14 21:50:00,,0831.7,5.00,0.00,28.6,25.8,00.0,37.7,30.2,30.7,0024.64,0011.91
2021-08-14 21:51:00,,0831.7,4.99,0.00,28.6,26.2,00.0,37.7,30.3,30.8,0024.60,0011.97
2021-08-14 21:52:00,,0831.7,5.01,0.00,28.6,26.7,00.0,37.7,30.4,30.4,0024.34,0012.04
2021-08-14 21:53:00,,0831.7,4.99,0.00,28.7,27.0,00.0,37.7,30.6,30.6,0024.02,0012.19
2021-08-14 21:54:00,,0831.7,5.01,0.00,28.8,27.4,00.0,37.7,30.7,30.3,0023.51,0012.23
2021-08-14 21:55:00,,0831.7,4.99,0.00,28.9,27.7,00.0,37.8,30.8,30.0,0022.61,0012.27
2021-08-14 21:56:00,,0831.7,5.01,0.00,28.8,26.9,00.0,37.8,30.5,29.9,0023.48,0012.32
2021-08-14 21:57:00,,0831.7,4.99,0.00,28.7,25.8,00.0,37.7,30.1,30.6,0023.10,0012.38
2021-08-14 21:58:00,,0831.8,5.00,0.00,28.6,25.8,00.0,37.7,30.1,29.9,0024.23,0012.46
2021-08-14 21:59:00,,0831.7,5.00,0.00,28.6,26.2,00.0,37.7,30.3,30.3,0024.49,0012.53
